TimeEST,TemperatureF,Dew PointF,Humidity,Sea Level PressureIn,VisibilityMPH,Wind Direction,Wind SpeedMPH,Gust SpeedMPH,PrecipitationIn,Events,Conditions,WindDirDegrees,DateUTC
12:53 AM,53.1,44.1,71,30.29,10.0,Calm,Calm,-,N/A,,Clear,0,2013-01-24 05:53:00
1:53 AM,52.0,46.0,80,30.27,10.0,ENE,8.1,-,N/A,,Clear,60,2013-01-24 06:53:00
2:53 AM,52.0,46.0,80,30.29,10.0,Calm,Calm,-,N/A,,Clear,0,2013-01-24 07:53:00
3:53 AM,51.1,46.0,83,30.26,10.0,Calm,Calm,-,N/A,,Clear,0,2013-01-24 08:53:00
4:53 AM,50.0,46.0,86,30.26,10.0,NE,5.8,-,N/A,,Clear,50,2013-01-24 09:53:00
5:53 AM,50.0,45.0,83,30.27,10.0,NE,3.5,-,N/A,,Clear,50,2013-01-24 10:53:00
6:53 AM,50.0,45.0,83,30.30,10.0,Calm,Calm,-,N/A,,Clear,0,2013-01-24 11:53:00
7:53 AM,52.0,45.0,77,30.30,10.0,Calm,Calm,-,N/A,,Clear,0,2013-01-24 12:53:00
8:53 AM,60.1,43.0,53,30.31,10.0,Calm,Calm,-,N/A,,Clear,0,2013-01-24 13:53:00
9:53 AM,64.9,39.0,39,30.32,10.0,ENE,6.9,-,N/A,,Clear,60,2013-01-24 14:53:00
10:53 AM,69.1,39.9,35,30.33,10.0,NNE,6.9,-,N/A,,Clear,30,2013-01-24 15:53:00
11:53 AM,71.1,41.0,34,30.32,10.0,North,8.1,-,N/A,,Clear,10,2013-01-24 16:53:00
12:53 PM,72.0,41.0,33,30.28,10.0,NE,9.2,-,N/A,,Clear,50,2013-01-24 17:53:00
1:53 PM,73.9,35.1,24,30.25,10.0,NE,6.9,-,N/A,,Clear,50,2013-01-24 18:53:00
2:53 PM,75.9,33.1,21,30.23,10.0,North,6.9,-,N/A,,Clear,360,2013-01-24 19:53:00
3:53 PM,75.0,34.0,22,30.23,10.0,North,5.8,-,N/A,,Clear,10,2013-01-24 20:53:00
4:53 PM,73.9,37.9,27,30.24,10.0,NE,6.9,-,N/A,,Clear,40,2013-01-24 21:53:00
5:53 PM,68.0,48.0,49,30.25,10.0,NW,10.4,-,N/A,,Clear,310,2013-01-24 22:53:00
6:53 PM,64.0,50.0,60,30.25,10.0,WNW,3.5,-,N/A,,Clear,300,2013-01-24 23:53:00
7:53 PM,62.1,52.0,70,30.27,10.0,Calm,Calm,-,N/A,,Clear,0,2013-01-25 00:53:00
8:53 PM,59.0,52.0,78,30.28,10.0,Calm,Calm,-,N/A,,Clear,0,2013-01-25 01:53:00
9:53 PM,60.1,48.0,64,30.29,10.0,NNE,6.9,-,N/A,,Clear,20,2013-01-25 02:53:00
10:53 PM,57.9,48.0,70,30.30,10.0,NE,4.6,-,N/A,,Clear,50,2013-01-25 03:53:00
11:53 PM,55.9,46.9,72,30.29,10.0,NE,5.8,-,N/A,,Clear,40,2013-01-25 04:53:00